When you browse on this site, cookies collect data to enhance your experience and personalize the content and advertising you see.
Visit our Privacy Policy to learn more. By continuing to use the site, you agree to this use of cookies and data.

Meteo orario Galkovichi

Oggi, 11 Agosto, Martedi

Tempo Temperatura Precipitazioni Vento Pressione Umidità
00:00 +17°C° 0 mm 2 m/s 744 mm Hg 91%
01:00 +17°C° 0 mm 2 m/s 745 mm Hg 92%
02:00 +17°C° 0 mm 2 m/s 745 mm Hg 93%
03:00 +16°C° 0 mm 2 m/s 745 mm Hg 94%
04:00 +16°C° 0 mm 2 m/s 745 mm Hg 95%
05:00 +16°C° 0 mm 2 m/s 745 mm Hg 96%
06:00 +16°C° 0 mm 2 m/s 745 mm Hg 93%
07:00 +17°C° 0 mm 3 m/s 745 mm Hg 90%
08:00 +18°C° 0 mm 3 m/s 745 mm Hg 87%
09:00 +19°C° 0 mm 3 m/s 745 mm Hg 78%
10:00 +20°C° 0 mm 4 m/s 746 mm Hg 70%
11:00 +22°C° 0 mm 4 m/s 746 mm Hg 61%
12:00 +22°C° 0 mm 4 m/s 746 mm Hg 58%
13:00 +22°C° 0 mm 4 m/s 746 mm Hg 54%
14:00 +23°C° 0 mm 5 m/s 746 mm Hg 51%
15:00 +22°C° 0 mm 4 m/s 746 mm Hg 53%
16:00 +22°C° 0 mm 4 m/s 746 mm Hg 56%
17:00 +21°C° 0 mm 4 m/s 746 mm Hg 58%
18:00 +20°C° 0 mm 3 m/s 746 mm Hg 64%
19:00 +18°C° 0 mm 3 m/s 746 mm Hg 71%
20:00 +16°C° 0 mm 2 m/s 746 mm Hg 77%
21:00 +15°C° 0 mm 2 m/s 746 mm Hg 80%
22:00 +14°C° 0 mm 2 m/s 746 mm Hg 82%
23:00 +14°C° 0 mm 2 m/s 746 mm Hg 84%

Domani, 12 Agosto, Mercoledi

Tempo Temperatura Precipitazioni Vento Pressione Umidità
00:00 +13°C° 0 mm 2 m/s 747 mm Hg 86%
01:00 +13°C° 0 mm 2 m/s 747 mm Hg 88%
02:00 +12°C° 0 mm 2 m/s 747 mm Hg 90%
03:00 +12°C° 0 mm 2 m/s 747 mm Hg 92%
04:00 +10°C° 0 mm 2 m/s 747 mm Hg 93%
05:00 +10°C° 0 mm 2 m/s 747 mm Hg 95%
06:00 +12°C° 0 mm 2 m/s 747 mm Hg 89%
07:00 +14°C° 0 mm 2 m/s 747 mm Hg 83%
08:00 +14°C° 0 mm 3 m/s 747 mm Hg 77%
09:00 +16°C° 0 mm 3 m/s 748 mm Hg 71%
10:00 +18°C° 0 mm 3 m/s 748 mm Hg 65%
11:00 +19°C° 0 mm 3 m/s 748 mm Hg 59%
12:00 +19°C° 0 mm 3 m/s 748 mm Hg 58%
13:00 +20°C° 0 mm 3 m/s 748 mm Hg 57%
14:00 +20°C° 0 mm 3 m/s 747 mm Hg 56%
15:00 +20°C° 0 mm 3 m/s 747 mm Hg 58%
16:00 +20°C° 0 mm 3 m/s 747 mm Hg 60%
17:00 +20°C° 0 mm 3 m/s 747 mm Hg 61%
18:00 +18°C° 0 mm 3 m/s 747 mm Hg 66%
19:00 +16°C° 0 mm 2 m/s 747 mm Hg 71%
20:00 +15°C° 0 mm 2 m/s 747 mm Hg 76%
21:00 +14°C° 0 mm 1 m/s 747 mm Hg 78%
22:00 +13°C° 0 mm 1 m/s 747 mm Hg 80%
23:00 +12°C° 0 mm 1 m/s 747 mm Hg 82%

Dopodomani, 13 Agosto, Giovedi

Tempo Temperatura Precipitazioni Vento Pressione Umidità
00:00 +12°C° 0 mm 1 m/s 747 mm Hg 83%
01:00 +11°C° 0 mm 1 m/s 747 mm Hg 85%
02:00 +11°C° 0 mm 1 m/s 747 mm Hg 87%
03:00 +9°C° 0 mm 0 m/s 747 mm Hg 87%
04:00 +9°C° 0 mm 0 m/s 747 mm Hg 88%
05:00 +9°C° 0 mm 0 m/s 747 mm Hg 88%
06:00 +11°C° 0 mm 0 m/s 747 mm Hg 82%
07:00 +13°C° 0 mm 0 m/s 747 mm Hg 75%
08:00 +15°C° 0 mm 0 m/s 747 mm Hg 68%
09:00 +16°C° 0 mm 0 m/s 747 mm Hg 63%
10:00 +19°C° 0 mm 1 m/s 747 mm Hg 58%
11:00 +21°C° 0 mm 1 m/s 747 mm Hg 53%
12:00 +21°C° 0 mm 1 m/s 747 mm Hg 52%
13:00 +21°C° 0 mm 1 m/s 746 mm Hg 52%
14:00 +21°C° 0 mm 1 m/s 746 mm Hg 52%
15:00 +21°C° 0 mm 1 m/s 746 mm Hg 54%
16:00 +21°C° 0 mm 1 m/s 746 mm Hg 57%
17:00 +21°C° 0 mm 1 m/s 746 mm Hg 59%
18:00 +19°C° 0 mm 1 m/s 746 mm Hg 65%
19:00 +16°C° 0 mm 1 m/s 746 mm Hg 71%
20:00 +14°C° 0 mm 1 m/s 746 mm Hg 77%
21:00 +14°C° 0 mm 1 m/s 746 mm Hg 79%
22:00 +12°C° 0 mm 0 m/s 746 mm Hg 80%
23:00 +12°C° 0 mm 0 m/s 746 mm Hg 82%

14 Agosto, Venerdi

Tempo Temperatura Precipitazioni Vento Pressione Umidità
00:00 +11°C° 0 mm 0 m/s 746 mm Hg 84%
01:00 +11°C° 0 mm 0 m/s 746 mm Hg 85%
02:00 +11°C° 0 mm 0 m/s 746 mm Hg 87%
03:00 +11°C° 0 mm 0 m/s 746 mm Hg 87%
04:00 +10°C° 0 mm 0 m/s 746 mm Hg 88%
05:00 +10°C° 0 mm 0 m/s 746 mm Hg 88%
06:00 +12°C° 0 mm 0 m/s 746 mm Hg 83%
07:00 +14°C° 0 mm 0 m/s 746 mm Hg 77%
08:00 +16°C° 0 mm 0 m/s 746 mm Hg 71%
09:00 +18°C° 0 mm 0 m/s 746 mm Hg 66%
10:00 +19°C° 0 mm 0 m/s 746 mm Hg 61%
11:00 +21°C° 0 mm 0 m/s 747 mm Hg 56%
12:00 +23°C° 0.1 mm 1 m/s 746 mm Hg 56%
13:00 +23°C° 0.1 mm 1 m/s 746 mm Hg 55%
14:00 +23°C° 0.1 mm 1 m/s 746 mm Hg 55%
15:00 +23°C° 0.2 mm 1 m/s 746 mm Hg 58%
16:00 +22°C° 0.2 mm 1 m/s 746 mm Hg 62%
17:00 +22°C° 0.2 mm 1 m/s 745 mm Hg 65%
18:00 +21°C° 0.1 mm 1 m/s 745 mm Hg 71%
19:00 +19°C° 0.1 mm 1 m/s 745 mm Hg 76%
20:00 +18°C° 0.1 mm 1 m/s 745 mm Hg 81%
21:00 +16°C° 0 mm 1 m/s 745 mm Hg 83%
22:00 +15°C° 0 mm 1 m/s 746 mm Hg 85%
23:00 +15°C° 0 mm 1 m/s 746 mm Hg 87%

15 Agosto, Sabato

Tempo Temperatura Precipitazioni Vento Pressione Umidità
00:00 +14°C° 0 mm 1 m/s 746 mm Hg 87%
01:00 +14°C° 0 mm 1 m/s 745 mm Hg 88%
02:00 +13°C° 0 mm 1 m/s 745 mm Hg 89%
03:00 +13°C° 0 mm 1 m/s 745 mm Hg 89%
04:00 +13°C° 0 mm 1 m/s 745 mm Hg 90%
05:00 +12°C° 0 mm 1 m/s 745 mm Hg 90%
06:00 +14°C° 0 mm 1 m/s 745 mm Hg 84%
07:00 +15°C° 0 mm 1 m/s 745 mm Hg 78%
08:00 +18°C° 0 mm 1 m/s 745 mm Hg 72%
09:00 +20°C° 0 mm 1 m/s 745 mm Hg 67%
10:00 +21°C° 0 mm 1 m/s 746 mm Hg 61%
11:00 +23°C° 0 mm 1 m/s 746 mm Hg 55%
12:00 +23°C° 0 mm 1 m/s 745 mm Hg 53%
13:00 +24°C° 0 mm 1 m/s 745 mm Hg 52%
14:00 +24°C° 0 mm 1 m/s 745 mm Hg 50%
15:00 +24°C° 0 mm 1 m/s 745 mm Hg 52%
16:00 +24°C° 0 mm 1 m/s 744 mm Hg 53%
17:00 +24°C° 0 mm 1 m/s 744 mm Hg 54%
18:00 +22°C° 0 mm 1 m/s 744 mm Hg 61%
19:00 +20°C° 0 mm 1 m/s 744 mm Hg 68%
20:00 +18°C° 0 mm 1 m/s 744 mm Hg 75%
21:00 +18°C° 0 mm 1 m/s 744 mm Hg 77%
22:00 +15°C° 0 mm 0 m/s 744 mm Hg 80%
23:00 +14°C° 0 mm 0 m/s 744 mm Hg 83%

16 Agosto, Domenica

Tempo Temperatura Precipitazioni Vento Pressione Umidità
00:00 +14°C° 0 mm 0 m/s 744 mm Hg 84%
01:00 +15°C° 0 mm 1 m/s 744 mm Hg 85%
02:00 +14°C° 0 mm 1 m/s 744 mm Hg 86%
03:00 +14°C° 0 mm 1 m/s 744 mm Hg 87%
04:00 +14°C° 0 mm 1 m/s 744 mm Hg 88%
05:00 +14°C° 0 mm 1 m/s 744 mm Hg 88%
06:00 +15°C° 0 mm 1 m/s 744 mm Hg 83%
07:00 +18°C° 0 mm 1 m/s 744 mm Hg 77%
08:00 +20°C° 0 mm 1 m/s 744 mm Hg 71%
09:00 +21°C° 0.1 mm 1 m/s 744 mm Hg 66%
10:00 +23°C° 0.1 mm 1 m/s 744 mm Hg 62%
11:00 +24°C° 0.1 mm 1 m/s 744 mm Hg 57%
12:00 +25°C° 0.2 mm 2 m/s 744 mm Hg 56%
13:00 +25°C° 0.2 mm 2 m/s 744 mm Hg 56%
14:00 +26°C° 0.2 mm 3 m/s 743 mm Hg 55%
15:00 +25°C° 0.1 mm 3 m/s 743 mm Hg 57%
16:00 +25°C° 0.1 mm 3 m/s 743 mm Hg 59%
17:00 +25°C° 0.1 mm 2 m/s 743 mm Hg 61%
18:00 +23°C° 0.2 mm 2 m/s 743 mm Hg 69%
19:00 +20°C° 0.2 mm 2 m/s 743 mm Hg 78%
20:00 +19°C° 0.2 mm 1 m/s 743 mm Hg 86%
21:00 +18°C° 0 mm 1 m/s 743 mm Hg 88%
22:00 +18°C° 0 mm 1 m/s 744 mm Hg 89%
23:00 +16°C° 0 mm 1 m/s 744 mm Hg 91%
Mostrare altro